QPF
0.09 0.15 0.14 0.12 0.11 0.11 0.12 0.11 0.09 0.07 0.06 0.06 0.05 0.04 0.03 0.03 0.04 0.04 0.06 0.05 0.06 0.06 0.07 0.07 0.06 0.06 0.07 0.07 0.09 0.10 0.13 0.12 0.11 0.12 0.15 0.14 0.13 0.10 0.09 0.10 0.12 0.06 0.08
0.10 0.16 0.13 0.08 0.07 0.06 0.06 0.07 0.06 0.04 0.04 0.06 0.04 0.04 0.08 0.11 0.08 0.06 0.06 0.05 0.06 0.06 0.06 0.05 0.05 0.06 0.05 0.05 0.06 0.07 0.10 0.16 0.17 0.15 0.13 0.14 0.16 0.14 0.11 0.11 0.10 0.05 0.07
0.13 0.17 0.09 0.05 0.05 0.05 0.05 0.04 0.03 0.03 0.04 0.06 0.05 0.07 0.16 0.15 0.11 0.07 0.05 0.06 0.08 0.08 0.06 0.04 0.04 0.05 0.04 0.05 0.06 0.07 0.09 0.13 0.16 0.17 0.15 0.12 0.17 0.16 0.13 0.10 0.10 0.06 0.06
0.13 0.14 0.08 0.05 0.04 0.04 0.04 0.03 0.02 0.02 0.04 0.05 0.05 0.07 0.10 0.13 0.11 0.06 0.05 0.06 0.08 0.07 0.05 0.04 0.04 0.04 0.04 0.05 0.06 0.08 0.10 0.11 0.13 0.15 0.13 0.11 0.16 0.14 0.12 0.11 0.11 0.08 0.07
0.11 0.12 0.12 0.06 0.04 0.03 0.03 0.02 0.02 0.03 0.03 0.04 0.04 0.05 0.06 0.08 0.07 0.06 0.07 0.07 0.09 0.08 0.06 0.06 0.06 0.05 0.04 0.04 0.05 0.07 0.10 0.11 0.13 0.11 0.07 0.06 0.10 0.11 0.11 0.13 0.11 0.09 0.08
0.10 0.11 0.11 0.07 0.04 0.03 0.03 0.03 0.03 0.03 0.03 0.04 0.03 0.03 0.03 0.05 0.06 0.09 0.11 0.09 0.11 0.10 0.09 0.08 0.07 0.07 0.05 0.06 0.07 0.09 0.10 0.08 0.10 0.07 0.04 0.05 0.05 0.06 0.11 0.15 0.14 0.13 0.11
0.10 0.11 0.12 0.08 0.05 0.03 0.04 0.04 0.04 0.04 0.05 0.04 0.03 0.03 0.04 0.05 0.08 0.12 0.11 0.12 0.11 0.09 0.08 0.08 0.09 0.08 0.07 0.07 0.09 0.10 0.10 0.08 0.08 0.07 0.02 0.03 0.05 0.05 0.07 0.13 0.15 0.14 0.14
0.10 0.11 0.12 0.10 0.07 0.05 0.06 0.05 0.06 0.06 0.05 0.05 0.05 0.04 0.05 0.06 0.07 0.06 0.06 0.08 0.07 0.07 0.07 0.07 0.07 0.06 0.06 0.07 0.09 0.09 0.08 0.06 0.07 0.10 0.03 0.02 0.05 0.06 0.06 0.10 0.12 0.11 0.13
0.09 0.10 0.09 0.08 0.05 0.04 0.05 0.05 0.06 0.07 0.08 0.06 0.06 0.05 0.07 0.07 0.06 0.05 0.06 0.06 0.06 0.05 0.05 0.04 0.04 0.07 0.07 0.07 0.08 0.09 0.08 0.06 0.05 0.06 0.03 0.02 0.04 0.06 0.07 0.10 0.10 0.08 0.09
0.10 0.10 0.07 0.05 0.05 0.05 0.05 0.06 0.07 0.08 0.10 0.08 0.07 0.06 0.08 0.08 0.08 0.07 0.06 0.06 0.07 0.07 0.05 0.04 0.05 0.06 0.08 0.10 0.10 0.10 0.07 0.05 0.03 0.03 0.02 0.02 0.04 0.06 0.10 0.12 0.11 0.09 0.07
0.06 0.08 0.07 0.06 0.05 0.05 0.05 0.04 0.05 0.06 0.09 0.07 0.06 0.06 0.05 0.04 0.05 0.05 0.05 0.06 0.07 0.08 0.08 0.08 0.08 0.07 0.08 0.10 0.11 0.10 0.08 0.04 0.03 0.02 0.02 0.02 0.04 0.07 0.10 0.11 0.10 0.08 0.07
0.04 0.05 0.05 0.05 0.05 0.04 0.03 0.02 0.02 0.04 0.06 0.05 0.05 0.05 0.03 0.03 0.03 0.03 0.04 0.04 0.05 0.06 0.07 0.08 0.09 0.07 0.06 0.04 0.05 0.07 0.03 0.02 0.03 0.02 0.02 0.03 0.04 0.06 0.08 0.09 0.08 0.08 0.09
0.04 0.04 0.03 0.04 0.04 0.03 0.02 0.02 0.02 0.02 0.03 0.04 0.05 0.05 0.03 0.02 0.02 0.02 0.01 0.02 0.02 0.04 0.05 0.05 0.06 0.06 0.03 0.02 0.03 0.04 0.02 0.02 0.02 0.01 0.02 0.03 0.06 0.08 0.08 0.08 0.08 0.07 0.07
0.05 0.05 0.04 0.03 0.03 0.02 0.02 0.02 0.01 0.02 0.02 0.03 0.05 0.05 0.02 0.01 0.01 0.01 0.00 0.01 0.01 0.03 0.04 0.04 0.04 0.04 0.03 0.02 0.03 0.03 0.02 0.02 0.02 0.02 0.03 0.05 0.09 0.11 0.09 0.08 0.08 0.07 0.05
0.05 0.04 0.03 0.02 0.02 0.02 0.01 0.01 0.01 0.01 0.02 0.02 0.03 0.04 0.02 0.01 0.02 0.01 0.00 0.01 0.02 0.02 0.03 0.05 0.04 0.04 0.04 0.03 0.02 0.02 0.02 0.03 0.03 0.02 0.04 0.05 0.07 0.08 0.07 0.06 0.06 0.07 0.06
0.03 0.03 0.03 0.02 0.02 0.02 0.02 0.02 0.03 0.02 0.02 0.02 0.01 0.01 0.01 0.02 0.02 0.01 0.01 0.01 0.02 0.02 0.01 0.02 0.03 0.03 0.04 0.03 0.03 0.02 0.01 0.02 0.02 0.02 0.01 0.02 0.06 0.07 0.06 0.05 0.06 0.06 0.06
0.03 0.02 0.02 0.01 0.01 0.02 0.04 0.04 0.04 0.04 0.04 0.03 0.01 0.01 0.01 0.01 0.01 0.01 0.01 0.01 0.02 0.02 0.01 0.01 0.01 0.02 0.02 0.03 0.02 0.02 0.02 0.01 0.01 0.02 0.02 0.02 0.03 0.06 0.06 0.05 0.06 0.07 0.08
0.03 0.02 0.02 0.02 0.03 0.04 0.04 0.04 0.04 0.03 0.03 0.03 0.03 0.03 0.02 0.02 0.02 0.01 0.01 0.01 0.01 0.01 0.01 0.00 0.01 0.01 0.01 0.03 0.03 0.02 0.01 0.01 0.01 0.01 0.01 0.01 0.02 0.02 0.04 0.06 0.07 0.08 0.09
0.02 0.03 0.04 0.04 0.04 0.05 0.04 0.03 0.03 0.02 0.02 0.02 0.04 0.04 0.03 0.03 0.03 0.02 0.01 0.02 0.02 0.01 0.01 0.01 0.01 0.01 0.01 0.02 0.03 0.02 0.02 0.01 0.01 0.01 0.01 0.01 0.02 0.02 0.03 0.05 0.08 0.09 0.09
0.03 0.04 0.03 0.04 0.04 0.05 0.03 0.03 0.02 0.02 0.02 0.02 0.02 0.04 0.03 0.03 0.03 0.02 0.01 0.01 0.02 0.02 0.01 0.01 0.01 0.01 0.02 0.02 0.02 0.02 0.02 0.01 0.01 0.01 0.01 0.01 0.02 0.02 0.02 0.04 0.07 0.09 0.10
0.02 0.02 0.02 0.02 0.02 0.02 0.02 0.03 0.04 0.03 0.03 0.02 0.02 0.02 0.01 0.01 0.01 0.01 0.01 0.01 0.02 0.02 0.02 0.01 0.01 0.01 0.01 0.02 0.03 0.03 0.02 0.01 0.03 0.03 0.02 0.02 0.03 0.02 0.02 0.03 0.04 0.05 0.07
0.02 0.02 0.02 0.02 0.01 0.01 0.02 0.03 0.04 0.03 0.03 0.03 0.03 0.02 0.02 0.01 0.01 0.02 0.02 0.02 0.02 0.04 0.03 0.02 0.01 0.01 0.01 0.02 0.02 0.02 0.03 0.04 0.04 0.04 0.04 0.04 0.04 0.03 0.03 0.04 0.04 0.05 0.05
0.04 0.05 0.04 0.04 0.03 0.02 0.03 0.03 0.03 0.02 0.02 0.02 0.03 0.03 0.03 0.03 0.03 0.03 0.04 0.04 0.03 0.03 0.03 0.03 0.03 0.03 0.03 0.03 0.03 0.03 0.03 0.04 0.04 0.05 0.04 0.05 0.06 0.05 0.03 0.03 0.03 0.04 0.04
0.07 0.11 0.05 0.03 0.03 0.03 0.03 0.02 0.02 0.03 0.02 0.02 0.02 0.03 0.03 0.03 0.03 0.03 0.04 0.04 0.04 0.04 0.04 0.04 0.04 0.04 0.04 0.04 0.05 0.04 0.04 0.03 0.04 0.05 0.04 0.05 0.06 0.06 0.04 0.03 0.03 0.04 0.04
0.04 0.09 0.06 0.04 0.04 0.04 0.04 0.03 0.03 0.03 0.01 0.01 0.02 0.02 0.02 0.02 0.03 0.03 0.04 0.05 0.05 0.06 0.06 0.05 0.05 0.05 0.08 0.07 0.06 0.05 0.04 0.04 0.05 0.06 0.05 0.05 0.05 0.04 0.04 0.04 0.04 0.05 0.06
0.03 0.04 0.04 0.05 0.05 0.05 0.05 0.05 0.04 0.02 0.01 0.01 0.02 0.02 0.03 0.02 0.03 0.03 0.04 0.03 0.04 0.06 0.08 0.07 0.06 0.08 0.10 0.11 0.09 0.07 0.06 0.05 0.05 0.06 0.06 0.06 0.05 0.05 0.06 0.06 0.05 0.06 0.06
MSLP
1008.89 1008.52 1008.38 1008.52 1008.90 1009.42 1010.00 1010.52 1010.92 1011.19 1011.37 1011.51 1011.69 1011.98 1012.39 1012.91 1013.46 1013.99 1014.42 1014.71 1014.84 1014.86 1014.83 1014.80 1014.83 1014.93 1015.11 1015.31 1015.50 1015.64 1015.71 1015.71 1015.68 1015.65 1015.67 1015.76 1015.91 1016.12 1016.35 1016.56 1016.74 1016.87 1016.97
1009.04 1008.75 1008.69 1008.90 1009.33 1009.90 1010.49 1011.00 1011.40 1011.65 1011.81 1011.94 1012.12 1012.41 1012.83 1013.34 1013.89 1014.41 1014.82 1015.08 1015.20 1015.21 1015.16 1015.11 1015.11 1015.18 1015.30 1015.45 1015.59 1015.68 1015.71 1015.70 1015.66 1015.65 1015.69 1015.80 1015.99 1016.21 1016.45 1016.66 1016.83 1016.96 1017.06
1009.11 1008.91 1008.96 1009.26 1009.76 1010.38 1011.00 1011.53 1011.92 1012.17 1012.32 1012.45 1012.63 1012.91 1013.30 1013.78 1014.30 1014.77 1015.14 1015.36 1015.45 1015.44 1015.37 1015.30 1015.28 1015.32 1015.40 1015.50 1015.58 1015.62 1015.62 1015.59 1015.57 1015.58 1015.65 1015.80 1016.00 1016.24 1016.48 1016.70 1016.87 1016.99 1017.08
1009.17 1009.08 1009.24 1009.64 1010.22 1010.89 1011.53 1012.08 1012.48 1012.73 1012.89 1013.01 1013.18 1013.44 1013.79 1014.22 1014.67 1015.07 1015.37 1015.54 1015.59 1015.55 1015.47 1015.40 1015.36 1015.37 1015.41 1015.47 1015.50 1015.51 1015.48 1015.45 1015.43 1015.47 1015.57 1015.74 1015.97 1016.22 1016.46 1016.66 1016.82 1016.94 1017.04
1009.28 1009.32 1009.59 1010.09 1010.73 1011.44 1012.10 1012.65 1013.04 1013.29 1013.44 1013.57 1013.72 1013.95 1014.26 1014.63 1014.99 1015.31 1015.53 1015.64 1015.65 1015.58 1015.49 1015.41 1015.36 1015.36 1015.38 1015.40 1015.40 1015.38 1015.34 1015.31 1015.30 1015.36 1015.48 1015.67 1015.90 1016.15 1016.37 1016.56 1016.71 1016.82 1016.94
1009.52 1009.68 1010.06 1010.63 1011.32 1012.03 1012.67 1013.20 1013.57 1013.81 1013.95 1014.07 1014.22 1014.43 1014.69 1014.99 1015.28 1015.51 1015.64 1015.69 1015.64 1015.56 1015.46 1015.38 1015.33 1015.33 1015.34 1015.34 1015.33 1015.29 1015.24 1015.21 1015.21 1015.28 1015.42 1015.60 1015.82 1016.04 1016.23 1016.39 1016.52 1016.63 1016.77
1009.95 1010.22 1010.67 1011.28 1011.96 1012.64 1013.23 1013.70 1014.03 1014.24 1014.38 1014.50 1014.64 1014.84 1015.07 1015.31 1015.52 1015.67 1015.73 1015.70 1015.61 1015.50 1015.40 1015.33 1015.30 1015.30 1015.32 1015.33 1015.31 1015.27 1015.22 1015.19 1015.20 1015.27 1015.39 1015.56 1015.74 1015.91 1016.05 1016.17 1016.27 1016.38 1016.53
1010.56 1010.91 1011.40 1012.01 1012.65 1013.25 1013.76 1014.14 1014.40 1014.57 1014.70 1014.83 1014.99 1015.18 1015.39 1015.59 1015.74 1015.82 1015.80 1015.72 1015.59 1015.45 1015.34 1015.29 1015.28 1015.30 1015.34 1015.36 1015.36 1015.33 1015.29 1015.27 1015.27 1015.33 1015.43 1015.55 1015.68 1015.78 1015.86 1015.92 1015.98 1016.08 1016.25
1011.33 1011.71 1012.22 1012.78 1013.34 1013.84 1014.23 1014.51 1014.70 1014.83 1014.95 1015.09 1015.26 1015.47 1015.68 1015.85 1015.96 1015.97 1015.90 1015.75 1015.58 1015.42 1015.32 1015.27 1015.28 1015.34 1015.41 1015.46 1015.49 1015.48 1015.46 1015.44 1015.44 1015.48 1015.53 1015.60 1015.65 1015.68 1015.69 1015.68 1015.69 1015.77 1015.93
1012.16 1012.57 1013.05 1013.54 1014.00 1014.37 1014.64 1014.82 1014.94 1015.03 1015.14 1015.30 1015.50 1015.73 1015.95 1016.11 1016.18 1016.15 1016.02 1015.83 1015.62 1015.44 1015.33 1015.30 1015.34 1015.43 1015.53 1015.62 1015.69 1015.71 1015.71 1015.70 1015.70 1015.71 1015.72 1015.72 1015.70 1015.64 1015.57 1015.49 1015.44 1015.48 1015.64
1012.98 1013.39 1013.83 1014.25 1014.60 1014.85 1015.01 1015.10 1015.15 1015.22 1015.33 1015.51 1015.74 1015.99 1016.21 1016.36 1016.41 1016.34 1016.17 1015.94 1015.71 1015.52 1015.41 1015.39 1015.46 1015.58 1015.73 1015.86 1015.96 1016.02 1016.05 1016.05 1016.04 1016.02 1015.99 1015.92 1015.83 1015.69 1015.53 1015.38 1015.27 1015.27 1015.40
1013.72 1014.11 1014.50 1014.85 1015.10 1015.26 1015.33 1015.35 1015.37 1015.42 1015.53 1015.73 1015.98 1016.24 1016.47 1016.61 1016.64 1016.55 1016.36 1016.11 1015.87 1015.68 1015.58 1015.58 1015.67 1015.82 1016.00 1016.18 1016.32 1016.41 1016.47 1016.48 1016.47 1016.42 1016.35 1016.22 1016.06 1015.85 1015.61 1015.39 1015.23 1015.18 1015.26
1014.31 1014.68 1015.03 1015.32 1015.51 1015.61 1015.63 1015.61 1015.60 1015.65 1015.77 1015.98 1016.23 1016.49 1016.71 1016.84 1016.86 1016.76 1016.57 1016.33 1016.10 1015.93 1015.84 1015.87 1015.98 1016.17 1016.38 1016.59 1016.76 1016.89 1016.96 1016.99 1016.97 1016.91 1016.79 1016.62 1016.40 1016.13 1015.83 1015.55 1015.34 1015.23 1015.28
1014.72 1015.08 1015.41 1015.65 1015.81 1015.88 1015.88 1015.86 1015.86 1015.91 1016.03 1016.23 1016.47 1016.71 1016.91 1017.03 1017.04 1016.95 1016.78 1016.58 1016.39 1016.26 1016.21 1016.27 1016.41 1016.62 1016.86 1017.09 1017.28 1017.43 1017.52 1017.56 1017.54 1017.46 1017.32 1017.11 1016.85 1016.53 1016.19 1015.87 1015.61 1015.46 1015.45
1014.96 1015.31 1015.62 1015.85 1016.01 1016.08 1016.10 1016.10 1016.12 1016.18 1016.29 1016.46 1016.67 1016.87 1017.04 1017.14 1017.15 1017.09 1016.97 1016.83 1016.72 1016.65 1016.67 1016.77 1016.94 1017.17 1017.42 1017.66 1017.87 1018.03 1018.13 1018.17 1018.15 1018.06 1017.90 1017.68 1017.39 1017.05 1016.68 1016.33 1016.04 1015.85 1015.80
1015.05 1015.38 1015.68 1015.92 1016.10 1016.21 1016.27 1016.31 1016.36 1016.43 1016.53 1016.66 1016.80 1016.95 1017.07 1017.15 1017.18 1017.16 1017.12 1017.08 1017.06 1017.09 1017.18 1017.33 1017.54 1017.78 1018.03 1018.27 1018.48 1018.64 1018.75 1018.79 1018.77 1018.69 1018.52 1018.29 1017.99 1017.65 1017.28 1016.92 1016.61 1016.39 1016.30
1015.02 1015.34 1015.63 1015.88 1016.09 1016.25 1016.38 1016.48 1016.56 1016.63 1016.71 1016.79 1016.86 1016.94 1017.01 1017.06 1017.11 1017.15 1017.20 1017.27 1017.36 1017.50 1017.67 1017.89 1018.13 1018.38 1018.63 1018.87 1019.07 1019.23 1019.34 1019.39 1019.38 1019.30 1019.15 1018.93 1018.64 1018.30 1017.94 1017.59 1017.28 1017.05 1016.93
1014.91 1015.20 1015.48 1015.75 1016.00 1016.22 1016.42 1016.58 1016.70 1016.78 1016.83 1016.85 1016.85 1016.85 1016.86 1016.89 1016.95 1017.05 1017.20 1017.38 1017.60 1017.84 1018.11 1018.38 1018.65 1018.92 1019.16 1019.39 1019.58 1019.74 1019.86 1019.93 1019.94 1019.88 1019.75 1019.55 1019.29 1018.98 1018.64 1018.31 1018.02 1017.79 1017.65
1014.73 1015.00 1015.26 1015.54 1015.83 1016.12 1016.39 1016.61 1016.78 1016.87 1016.89 1016.86 1016.78 1016.70 1016.65 1016.66 1016.73 1016.89 1017.12 1017.41 1017.73 1018.08 1018.42 1018.74 1019.04 1019.31 1019.56 1019.78 1019.97 1020.15 1020.28 1020.38 1020.43 1020.40 1020.31 1020.15 1019.93 1019.66 1019.36 1019.06 1018.79 1018.57 1018.43
1014.52 1014.74 1014.99 1015.28 1015.60 1015.94 1016.28 1016.57 1016.78 1016.90 1016.91 1016.82 1016.69 1016.54 1016.43 1016.40 1016.48 1016.67 1016.97 1017.34 1017.75 1018.17 1018.58 1018.94 1019.26 1019.53 1019.78 1020.00 1020.21 1020.40 1020.58 1020.72 1020.81 1020.84 1020.81 1020.70 1020.52 1020.30 1020.05 1019.80 1019.56 1019.37 1019.23
1014.26 1014.45 1014.67 1014.95 1015.30 1015.69 1016.10 1016.45 1016.72 1016.86 1016.87 1016.76 1016.58 1016.38 1016.22 1016.16 1016.23 1016.44 1016.77 1017.19 1017.65 1018.12 1018.56 1018.94 1019.27 1019.55 1019.81 1020.04 1020.27 1020.51 1020.73 1020.93 1021.09 1021.19 1021.21 1021.17 1021.05 1020.89 1020.69 1020.49 1020.29 1020.13 1020.01
1013.96 1014.10 1014.30 1014.58 1014.94 1015.38 1015.83 1016.25 1016.58 1016.76 1016.79 1016.68 1016.48 1016.24 1016.05 1015.96 1016.00 1016.20 1016.54 1016.97 1017.45 1017.93 1018.38 1018.77 1019.10 1019.38 1019.64 1019.90 1020.17 1020.45 1020.73 1021.00 1021.24 1021.41 1021.51 1021.53 1021.48 1021.38 1021.24 1021.09 1020.94 1020.81 1020.72
1013.59 1013.71 1013.89 1014.15 1014.53 1014.99 1015.49 1015.96 1016.35 1016.58 1016.65 1016.56 1016.36 1016.12 1015.91 1015.79 1015.80 1015.97 1016.28 1016.70 1017.16 1017.62 1018.05 1018.43 1018.75 1019.04 1019.31 1019.60 1019.90 1020.24 1020.59 1020.93 1021.24 1021.48 1021.66 1021.75 1021.77 1021.73 1021.65 1021.55 1021.45 1021.37 1021.30
1013.16 1013.27 1013.43 1013.68 1014.06 1014.53 1015.06 1015.57 1016.01 1016.31 1016.43 1016.39 1016.22 1015.99 1015.77 1015.63 1015.62 1015.75 1016.02 1016.39 1016.80 1017.22 1017.62 1017.97 1018.28 1018.56 1018.84 1019.15 1019.50 1019.88 1020.29 1020.70 1021.07 1021.39 1021.63 1021.79 1021.87 1021.89 1021.87 1021.83 1021.78 1021.74 1021.71
1012.66 1012.78 1012.93 1013.17 1013.53 1014.00 1014.54 1015.09 1015.57 1015.92 1016.11 1016.13 1016.01 1015.81 1015.61 1015.47 1015.43 1015.52 1015.74 1016.04 1016.40 1016.77 1017.11 1017.42 1017.71 1017.98 1018.27 1018.59 1018.97 1019.39 1019.84 1020.29 1020.72 1021.09 1021.39 1021.61 1021.75 1021.83 1021.87 1021.89 1021.89 1021.90 1021.91
1012.11 1012.25 1012.39 1012.62 1012.96 1013.41 1013.94 1014.50 1015.01 1015.42 1015.67 1015.75 1015.70 1015.56 1015.40 1015.26 1015.21 1015.27 1015.43 1015.67 1015.96 1016.26 1016.55 1016.83 1017.08 1017.34 1017.62 1017.95 1018.33 1018.77 1019.24 1019.72 1020.18 1020.59 1020.94 1021.20 1021.40 1021.54 1021.64 1021.72 1021.78 1021.84 1021.90
Thickness
5800 5804 5805 5805 5803 5802 5801 5800 5799 5798 5797 5797 5796 5795 5794 5793 5791 5790 5788 5786 5784 5783 5781 5780 5778 5777 5776 5775 5774 5773 5771 5770 5768 5767 5765 5764 5763 5762 5761 5760 5759 5758 5757
5804 5805 5805 5804 5803 5801 5800 5799 5798 5797 5797 5796 5795 5794 5793 5792 5790 5789 5788 5786 5784 5782 5781 5779 5778 5776 5775 5774 5773 5772 5771 5769 5768 5766 5765 5764 5762 5761 5760 5759 5758 5757 5756
5804 5805 5804 5803 5802 5800 5799 5798 5797 5796 5795 5794 5793 5793 5792 5791 5789 5788 5787 5785 5783 5782 5780 5779 5778 5776 5775 5774 5773 5772 5770 5769 5767 5765 5764 5763 5761 5761 5759 5758 5757 5756 5755
5804 5804 5803 5802 5801 5799 5798 5797 5796 5795 5794 5793 5792 5792 5791 5790 5788 5787 5786 5784 5783 5781 5780 5779 5777 5776 5775 5773 5772 5771 5770 5768 5767 5765 5764 5762 5760 5759 5759 5758 5757 5756 5754
5803 5803 5802 5801 5800 5798 5797 5796 5795 5794 5793 5792 5791 5791 5790 5789 5787 5786 5785 5784 5782 5781 5779 5778 5777 5775 5774 5773 5772 5770 5769 5767 5766 5764 5763 5762 5761 5759 5758 5757 5756 5754 5753
5802 5802 5801 5799 5798 5797 5796 5794 5794 5793 5792 5791 5790 5790 5789 5788 5787 5786 5785 5783 5782 5780 5778 5777 5775 5774 5773 5772 5771 5769 5768 5766 5765 5763 5762 5761 5760 5759 5758 5756 5755 5754 5753
5801 5801 5800 5798 5797 5796 5794 5793 5792 5791 5791 5790 5789 5789 5788 5787 5786 5785 5784 5783 5781 5780 5778 5777 5775 5774 5773 5772 5770 5769 5768 5766 5764 5763 5761 5760 5760 5759 5758 5756 5755 5753 5752
5800 5800 5799 5797 5796 5794 5793 5791 5790 5790 5789 5788 5788 5787 5786 5785 5784 5783 5783 5782 5781 5779 5778 5776 5775 5774 5773 5771 5770 5769 5768 5766 5764 5763 5761 5760 5760 5759 5758 5757 5755 5753 5752
5799 5798 5796 5795 5794 5793 5792 5790 5789 5789 5788 5787 5786 5785 5784 5784 5783 5782 5781 5780 5779 5778 5777 5776 5775 5774 5772 5771 5770 5768 5767 5766 5764 5762 5761 5760 5759 5758 5757 5756 5755 5753 5751
5797 5796 5795 5794 5793 5792 5791 5790 5788 5787 5787 5786 5784 5783 5783 5782 5781 5780 5780 5779 5778 5778 5777 5776 5774 5774 5772 5771 5770 5768 5767 5765 5763 5762 5761 5760 5760 5758 5757 5756 5754 5753 5751
5794 5794 5794 5793 5791 5790 5789 5788 5787 5786 5785 5784 5783 5782 5781 5780 5779 5779 5778 5778 5777 5777 5776 5775 5774 5774 5772 5771 5770 5768 5766 5765 5763 5762 5761 5760 5759 5758 5756 5755 5753 5752 5751
5791 5793 5793 5792 5790 5789 5788 5787 5786 5785 5784 5783 5781 5781 5780 5779 5778 5777 5777 5776 5776 5776 5775 5774 5773 5773 5771 5770 5768 5767 5765 5764 5763 5762 5761 5760 5759 5757 5756 5754 5753 5751 5750
5793 5792 5792 5791 5790 5789 5787 5786 5785 5784 5783 5782 5781 5780 5779 5778 5777 5776 5775 5775 5775 5774 5774 5773 5772 5771 5770 5769 5767 5765 5764 5763 5763 5762 5761 5760 5759 5757 5756 5754 5753 5751 5750
5792 5792 5793 5792 5790 5788 5787 5785 5784 5783 5781 5780 5779 5778 5777 5776 5775 5774 5774 5773 5773 5772 5772 5772 5771 5770 5768 5767 5766 5764 5763 5763 5762 5761 5761 5760 5759 5757 5756 5754 5753 5752 5750
5793 5792 5793 5792 5790 5789 5786 5785 5783 5781 5780 5779 5778 5777 5776 5775 5774 5773 5772 5772 5771 5771 5770 5770 5769 5768 5767 5766 5765 5763 5763 5762 5761 5760 5760 5760 5759 5757 5756 5754 5753 5752 5750
5795 5794 5793 5792 5791 5789 5786 5784 5782 5780 5779 5778 5777 5776 5775 5774 5773 5772 5771 5770 5770 5769 5769 5768 5767 5766 5765 5764 5763 5762 5762 5761 5760 5760 5759 5759 5758 5757 5756 5755 5753 5752 5750
5797 5795 5794 5793 5791 5788 5786 5784 5781 5779 5778 5777 5776 5775 5775 5774 5772 5771 5770 5769 5769 5768 5767 5767 5766 5765 5763 5762 5761 5761 5760 5760 5759 5759 5759 5758 5757 5756 5755 5754 5753 5751 5750
5799 5796 5796 5795 5791 5788 5786 5784 5781 5779 5778 5777 5776 5775 5774 5774 5772 5771 5769 5768 5768 5767 5766 5764 5763 5762 5760 5759 5758 5758 5758 5758 5758 5757 5757 5757 5756 5755 5754 5753 5751 5750 5748
5800 5798 5795 5794 5791 5788 5785 5783 5781 5779 5777 5776 5775 5774 5774 5773 5772 5770 5768 5767 5766 5765 5763 5763 5761 5759 5757 5756 5756 5756 5756 5755 5755 5755 5754 5754 5753 5752 5751 5750 5749 5748 5747
5802 5799 5795 5793 5790 5787 5784 5781 5779 5777 5776 5775 5775 5774 5774 5773 5772 5770 5768 5766 5764 5763 5761 5760 5758 5757 5755 5754 5754 5753 5752 5752 5752 5751 5751 5751 5750 5749 5748 5747 5746 5746 5745
5801 5798 5795 5792 5790 5786 5782 5779 5776 5774 5774 5774 5774 5774 5773 5772 5771 5769 5767 5764 5763 5761 5759 5758 5756 5754 5752 5751 5749 5747 5748 5749 5748 5748 5748 5747 5747 5746 5745 5744 5743 5742 5741
5800 5798 5796 5793 5790 5787 5784 5781 5778 5776 5774 5774 5774 5773 5772 5771 5770 5768 5765 5763 5761 5759 5757 5755 5754 5751 5749 5748 5744 5740 5737 5738 5742 5744 5743 5742 5742 5742 5741 5741 5740 5739 5737
5800 5798 5796 5793 5791 5788 5785 5781 5778 5774 5772 5771 5770 5770 5771 5770 5768 5767 5765 5762 5760 5758 5755 5754 5752 5749 5745 5744 5743 5738 5732 5729 5732 5736 5737 5737 5737 5737 5737 5736 5736 5735 5734
5801 5799 5796 5793 5789 5787 5785 5780 5776 5771 5768 5768 5768 5768 5768 5768 5767 5765 5763 5761 5758 5756 5754 5752 5750 5747 5744 5740 5740 5738 5736 5733 5728 5726 5729 5731 5732 5732 5732 5733 5732 5731 5731
5802 5799 5796 5792 5788 5786 5783 5779 5775 5773 5770 5769 5768 5767 5766 5766 5765 5763 5761 5759 5757 5755 5752 5750 5748 5746 5743 5740 5738 5736 5733 5731 5729 5724 5721 5724 5726 5728 5728 5728 5728 5727 5727
5801 5798 5794 5790 5787 5784 5780 5777 5774 5771 5769 5767 5765 5764 5763 5762 5762 5761 5759 5757 5755 5753 5750 5748 5746 5744 5741 5739 5737 5735 5731 5728 5725 5722 5719 5718 5719 5722 5724 5724 5724 5723 5723